www.pogodaiklimat.ru

ПОГОДА в Бриджпорте, CA

  • Прогноз погоды в Бриджпорте
  • Монитор погоды в Бриджпорте
  • Климат в Бриджпорте

АРХИВ ПОГОДЫ в Бриджпорте

Время (UTC), дата Ветер
(напр.,м/с)
 
Видим.   Явления Облачность Т
(С)
Тd
(С)
f
(%)
Тe
(С)
Тes
(С)
Комфортность

P
(гПа)

Po
(гПа)
Тmin
(С)
Tmax
(С)
R
(мм)
SD
(см)
13:48 24.05   3 км  мгла  10/10 90 м  +7.0  -1.0  57  +7  +7      793.3         
13:52 24.05   3 км  мгла  10/10 90 м  +6.7  0.0  62  +6  +6    1012.2  793.3         
13:59 24.05   2 км  мгла  10/10 60 м  +5.6  0.0  67  +5  +5      793.3         
14:08 24.05   5 км  мгла  10/10 60 м  +6.7  0.0  62  +6  +6      793.3         
14:52 24.05   16 км    8/8 120 м  +10.0  +1.7  56  +10  +11    1014.3  793.1         
15:01 24.05   16 км    5/5 120 м  +11.7  +1.7  50  +12  +17      793.1         
15:52 24.05   16 км    8/8 1200 м  +15.0  +1.1  39  +15  +17    1011.0  792.8         
16:52 24.05 Ю  16 км    5/5 1410 м  +23.3  +0.6  22  +22  +27  комфорт  1008.3  792.8  +3.3  +23.9     
17:52 24.05 ЮВ  16 км    2/2 1500 м  +20.0  +1.1  28  +20  +29    1009.9  792.8         
18:52 24.05     16 км    5/5 1800 м
[средняя] 
+20.6  -2.8  21  +20  +33  опасность
простуды 
1009.3  792.3         
19:52 24.05   16 км    10/0 2400 м
[средняя] 
+20.0  -2.8  21  +20  +28    1009.0  792.0         
20:52 24.05 нст  16 км    8/0 2400 м
[средняя] 
+20.0  -3.3  21  +21  +30  комфорт  1007.6  791.2         
21:52 24.05   16 км    10/0 2400 м
[средняя] 
+23.3  -3.9  16  +21  +28  комфорт  1007.0  790.7         
22:52 24.05 нст  16 км    10/0 2250 м
[средняя] 
+16.1  0.0  33  +16  +19    1008.2  790.4  +16.1  +26.7     
23:52 24.05 ЮЗ  16 км    10/0 2250 м
[средняя] 
+19.4  +1.7  31  +19  +21    1007.6  790.7         
00:52 25.05 ЮЗ  16 км    10/0 2250 м
[средняя] 
+21.1  +0.6  26  +21  +21  комфорт  1006.3  790.4         
01:52 25.05 ЮЗ  16 км    10/0 2100 м
[средняя] 
+17.2  +1.7  35  +17  +17    1007.6  790.7         
02:52 25.05 Ю  5
{9} 
16 км    10/8 1500 м
[средняя] 
+15.6  +1.1  37  +14  +14    1007.4  791.0         
03:52 25.05 нст  16 км    10/0 2400 м
[средняя] 
+12.2  +0.6  45  +11  +11    1007.1  791.0         
04:52 25.05 З  16 км    10/0 2550 м
[средняя] 
+13.9  +0.6  40  +13  +13    1004.4  790.7  +10.0  +22.2     
05:52 25.05 ЮЗ  16 км    ясно  +16.1  -1.1  31  +15  +15    1004.2  790.4         
06:52 25.05 З  16 км    ясно  +10.6  -2.8  39  +9  +9    1005.2  790.2         
07:52 25.05 С  16 км    ясно  +8.3  -2.8  45  +6  +6    1005.1  789.6         
08:52 25.05 нст  16 км    ясно  +7.8  -2.8  47  +6  +6    1004.7  789.1         
09:52 25.05   16 км    2/2 1230 м  +5.6  -2.8  55  +5  +5    1004.0  788.8         
10:52 25.05   16 км    2/2 1380 м  +5.0  -2.8  57  +5  +5    1005.8  788.6  +4.4  +17.2     
11:52 25.05   16 км    8/8 1380 м  +4.4  -2.8  59  +4  +4    1004.5  788.3         
12:52 25.05   16 км    ясно  +4.4  -2.2  62  +4  +4    1004.3  788.6         
13:52 25.05   16 км    8/8 1500 м  +11.7  -1.7  39  +12  +12    1003.0  788.1         
14:52 25.05 ЮЗ  4
{8} 
16 км    5/5 1650 м  +18.9  -2.8  23  +19  +20    1001.3  787.8         
15:52 25.05 Ю  6
{8} 
16 км    5/5 1800 м  +21.7  -3.3  18  +21  +22  комфорт  1001.5  788.1         
16:52 25.05 Ю  4
{8} 
16 км    8/8 1950 м  +22.8  -5.0  15  +21  +22  комфорт  1001.1  788.1  +3.3  +24.4     
17:52 25.05 З  6
{10} 
16 км    5/5 1950 м  +21.1  -4.4  18  +20  +23    1000.6  788.1         
18:52 25.05 З  8
{11} 
16 км    2/2 1950 м  +21.7  -5.0  16  +20  +22    1001.7  787.8         
19:52 25.05 ЮЗ  5
{9} 
16 км    2/2 1800 м  +22.8  -2.8  18  +21  +27  комфорт  1001.5  787.5         
20:52 25.05 ЮЗ  5
{10} 
16 км    2/2 1800 м  +22.8  -3.9  17  +21  +27  комфорт  1001.6  787.5         
21:52 25.05 Ю  8
{12} 
16 км    5/2 1800 м
[средняя] 
+20.6  -3.3  20  +20  +21    1002.7  787.5         
22:52 25.05 Ю  8
{12} 
16 км    2/2 1950 м  +19.4  -1.7  24  +19  +19    1003.5  787.5  +19.4  +24.4     
23:52 25.05 Ю  6
{10} 
16 км    ясно  +19.4  -1.7  24  +19  +21    1003.2  787.5         
00:52 26.05 ЮЗ  16 км    ясно  +17.2  -1.1  29  +17  +19    1003.5  787.3         
01:52 26.05 ЮЗ  16 км    ясно  +15.6  -1.7  30  +15  +15    1001.8  787.0         
02:52 26.05 З  16 км    ясно  +8.9  -2.8  44  +7  +7    1001.5  786.7         
03:52 26.05   16 км    ясно  +8.9  -3.3  42  +9  +9    1000.2  786.5         
04:52 26.05     16 км    ясно  +13.3  -3.9  30  +13  +13    997.8  785.7  +7.8  +20.6     
05:52 26.05 ЮЗ  16 км    ясно  +12.2  -3.3  34  +11  +11    997.3  784.6         
06:52 26.05 ЮЗ  5
{12} 
16 км    ясно  +15.6  -4.4  25  +14  +14    995.1  783.8         
07:52 26.05 ЮЗ  4
{9} 
16 км    ясно  +13.9  -3.9  29  +12  +12    994.5  783.0         
08:52 26.05 ЮЗ  4
{8} 
16 км    8/2 1800 м
[средняя] 
+13.3  -3.9  30  +12  +12    993.5  782.2         

 

Местоположение метеостанции MCMWTC: широта 38.3557 долгота -119.5188 высота над уровнем моря 2057 м.

В архиве по умолчанию представлена погода в Бриджпорте за последние 1-2 суток. Обновление информации о фактической погоде в базе происходит ежечасно! Архивные данные за месяц целиком и за предыдущие месяцы Вы можете получить, выбрав интересующий диапазон дат из раскрывающегося списка и нажав кнопку "Ввод!".

Внимание! Архив погоды МЕТАР в базе сайта хранится не более 60 дней. Нет смысла пытаться выбрать более раннюю дату.

Внимание! Время в таблицах - всемирное. Для получения местного времени необходимо прибавить поправку, которая в Бриджпорте равна -8 ч.

Ветер - указаны скорость ветра в м/с и направление, откуда дует ветер: С - северный, СВ - северо-восточный, В - восточный, ЮВ - юго-восточный, Ю - южный, ЮЗ - юго-западный, З - западный, СЗ - северо-западный.
Видимость - горизонтальная дальность видимости в метрах или километрах. При видимости от 1 до 10 км при отсутствии осадков обычно наблюдается дымка, при ухудшении видимости до 1 км и менее - туман. В сухую погоду видимость может ухудшаться дымом, пылью или мглою.
Атмосферные явления - указаны явления, наблюдавшиеся в указанный момент времени.
Облачность - указаны через наклонную черту верхняя и нижняя облачность в баллах и высота нижней границы облаков в метрах. Внимание: облачность, как и прочие метеорологические величины в США измеряются автоматическими метеостанциями. Указанные значения в баллах носят условный характер и показывают процент времени, в течение которого, в среднем, лазерный луч высотомера отражался от облаков обратно.
T - Температура воздуха - температура, измеренная на высоте 2 м над землей.
Td - Температура точки росы - температура, при понижении до которой содержащийся в воздухе водяной пар достигнет насыщения.
f - Относительная влажность воздуха - влажноcть воздуха, измеренная на высоте 2 м над землей.
Te - Эффективная температура - температура, которую ощущает одетый по сезону человек в тени. Характеристика душности погоды. При расчете учитывается влияние влажности воздуха и скорости ветра на теплоощущения человека.
Tes - Эффективная температура на солнце - температура, которую ощущает человек, с поправкой на солнечный нагрев. Характеристика знойности погоды. Зависит от высоты солнца над горизонтом, облачности и скорости ветра. Ночью, в пасмурную погоду, а также при ветре 12 м/с и более поправка равна нулю.
P - Атмосферное давление - приведенное к уровню моря атмосферное давление.
Po - Атмосферное давление - измеренное на уровне метеостанции атмосферное давление.
Tmin - Минимальная температура - минимум температуры воздуха на высоте 2 м над землей.
Tmax - Максимальная температура - максимум температуры воздуха на высоте 2 м над землей.
R - Количество осадков - Количество выпавших осадков за 3 или 6 часов, мм.
SD - Снежный покров - Высота снежного покрова, см.